Location: Ferchesar
(52.6477°N, 12.4298°E)
Time: 05:42:06
(UTC+02:00)

Transit 4A - Pass Details

Date: 28 February 2021
Orbit: 869 x 976 km, 66.8° (Epoch: 12 April)

Event Time Altitude Azimuth Distance (km) Brightness Sun altitude
Rises 18:53:44 0° 320° (NW) 3,608 11.6 -10.8°
Reaches altitude 10° 18:56:20 10° 322° (NW) 2,644 10.9 -11.2°
Maximum altitude 19:02:28 70° 47° (NE) 969 7.9 -12.1°
Enters shadow 19:08:17 11° 131° (SE) 2,520 9.7 -13.0°
Drops below altitude 10° 19:08:23 10° 131° (SE) 2,558 - -13.0°
Sets 19:10:52 0° 134° (SE) 3,481 - -13.4°
